Year,Month,Day,Hour,Minute,Value (Times are PST for temperature in C)
2013,11,25,00,00,2.90
2013,11,25,00,01,2.90
2013,11,25,00,02,3.00
2013,11,25,00,03,3.00
2013,11,25,00,04,3.00
2013,11,25,00,05,3.00
2013,11,25,00,06,3.00
2013,11,25,00,07,3.00
2013,11,25,00,08,3.00
2013,11,25,00,09,3.00
2013,11,25,00,10,3.10
2013,11,25,00,11,3.10
2013,11,25,00,12,3.00
2013,11,25,00,13,3.00
2013,11,25,00,14,3.00
2013,11,25,00,15,3.00
2013,11,25,00,16,3.00
2013,11,25,00,17,3.00
2013,11,25,00,18,3.00
2013,11,25,00,19,3.00
2013,11,25,00,20,2.90
2013,11,25,00,21,2.90
2013,11,25,00,22,2.90
2013,11,25,00,23,2.90
2013,11,25,00,24,2.90
2013,11,25,00,25,2.80
2013,11,25,00,26,2.80
2013,11,25,00,27,2.80
2013,11,25,00,28,2.80
2013,11,25,00,29,2.70
2013,11,25,00,30,2.70
2013,11,25,00,31,2.70
2013,11,25,00,32,2.70
2013,11,25,00,33,2.70
2013,11,25,00,34,2.70
2013,11,25,00,35,2.70
2013,11,25,00,36,2.70
2013,11,25,00,37,2.60
2013,11,25,00,38,2.60
2013,11,25,00,39,2.60
2013,11,25,00,40,2.60
2013,11,25,00,41,2.60
2013,11,25,00,42,2.60
2013,11,25,00,43,2.60
2013,11,25,00,44,2.60
2013,11,25,00,45,2.60
2013,11,25,00,46,2.60
2013,11,25,00,47,2.60
2013,11,25,00,48,2.50
2013,11,25,00,49,2.50
2013,11,25,00,50,2.50
2013,11,25,00,51,2.50
2013,11,25,00,52,2.50
2013,11,25,00,53,2.50
2013,11,25,00,54,2.60
2013,11,25,00,55,2.60
2013,11,25,00,56,2.60
2013,11,25,00,57,2.60
2013,11,25,00,58,2.60
2013,11,25,00,59,2.60
2013,11,25,01,00,2.60
2013,11,25,01,01,2.60
2013,11,25,01,02,2.60
2013,11,25,01,03,2.60
2013,11,25,01,04,2.60
2013,11,25,01,05,2.70
2013,11,25,01,06,2.70
2013,11,25,01,07,2.80
2013,11,25,01,08,2.80
2013,11,25,01,09,2.90
2013,11,25,01,10,2.90
2013,11,25,01,11,2.90
2013,11,25,01,12,3.00
2013,11,25,01,13,3.00
2013,11,25,01,14,3.00
2013,11,25,01,15,2.90
2013,11,25,01,16,2.90
2013,11,25,01,17,2.90
2013,11,25,01,18,2.90
2013,11,25,01,19,3.00
2013,11,25,01,20,3.00
2013,11,25,01,21,3.00
2013,11,25,01,22,3.00
2013,11,25,01,23,3.00
2013,11,25,01,24,3.00
2013,11,25,01,25,3.00
2013,11,25,01,26,3.00
2013,11,25,01,27,2.90
2013,11,25,01,28,2.90
2013,11,25,01,29,2.90
2013,11,25,01,30,2.90
2013,11,25,01,31,2.80
2013,11,25,01,32,2.80
2013,11,25,01,33,2.80
2013,11,25,01,34,2.70
2013,11,25,01,35,2.70
2013,11,25,01,36,2.70
2013,11,25,01,37,2.80
2013,11,25,01,38,2.80
2013,11,25,01,39,2.80
2013,11,25,01,40,2.90
2013,11,25,01,41,2.90
2013,11,25,01,42,2.90
2013,11,25,01,43,2.90
2013,11,25,01,44,2.90
2013,11,25,01,45,2.80
2013,11,25,01,46,2.80
2013,11,25,01,47,2.80
2013,11,25,01,48,2.80
2013,11,25,01,49,2.80
2013,11,25,01,50,2.80
2013,11,25,01,51,2.80
2013,11,25,01,52,2.80
2013,11,25,01,53,2.80
2013,11,25,01,54,2.80
2013,11,25,01,55,2.80
2013,11,25,01,56,2.90
2013,11,25,01,57,2.90
2013,11,25,01,58,2.90
2013,11,25,01,59,2.90
2013,11,25,02,00,2.90
2013,11,25,02,01,2.80
2013,11,25,02,02,2.80
2013,11,25,02,03,2.80
2013,11,25,02,04,2.80
2013,11,25,02,05,2.80
2013,11,25,02,06,2.80
2013,11,25,02,07,2.70
2013,11,25,02,08,2.70
2013,11,25,02,09,2.70
2013,11,25,02,10,2.60
2013,11,25,02,11,2.60
2013,11,25,02,12,2.50
2013,11,25,02,13,2.50
2013,11,25,02,14,2.50
2013,11,25,02,15,2.40
2013,11,25,02,16,2.40
2013,11,25,02,17,2.30
2013,11,25,02,18,2.30
2013,11,25,02,19,2.30
2013,11,25,02,20,2.40
2013,11,25,02,21,2.40
2013,11,25,02,22,2.50
2013,11,25,02,23,2.50
2013,11,25,02,24,2.50
2013,11,25,02,25,2.50
2013,11,25,02,26,2.50
2013,11,25,02,27,2.50
2013,11,25,02,28,2.60
2013,11,25,02,29,2.60
2013,11,25,02,30,2.70
2013,11,25,02,31,2.70
2013,11,25,02,32,2.70
2013,11,25,02,33,2.70
2013,11,25,02,34,2.70
2013,11,25,02,35,2.70
2013,11,25,02,36,2.70
2013,11,25,02,37,2.70
2013,11,25,02,38,2.70
2013,11,25,02,39,2.60
2013,11,25,02,40,2.60
2013,11,25,02,41,2.60
2013,11,25,02,42,2.60
2013,11,25,02,43,2.60
2013,11,25,02,44,2.60
2013,11,25,02,45,2.60
2013,11,25,02,46,2.60
2013,11,25,02,47,2.60
2013,11,25,02,48,2.60
2013,11,25,02,49,2.60
2013,11,25,02,50,2.60
2013,11,25,02,51,2.60
2013,11,25,02,52,2.60
2013,11,25,02,53,2.60
2013,11,25,02,54,2.60
2013,11,25,02,55,2.50
2013,11,25,02,56,2.50
2013,11,25,02,57,2.50
2013,11,25,02,58,2.40
2013,11,25,02,59,2.40
2013,11,25,03,00,2.40
2013,11,25,03,01,2.40
2013,11,25,03,02,2.40
2013,11,25,03,03,2.40
2013,11,25,03,04,2.40
2013,11,25,03,05,2.40
2013,11,25,03,06,2.40
2013,11,25,03,07,2.40
2013,11,25,03,08,2.40
2013,11,25,03,09,2.40
2013,11,25,03,10,2.40
2013,11,25,03,11,2.40
2013,11,25,03,12,2.50
2013,11,25,03,13,2.50
2013,11,25,03,14,2.50
2013,11,25,03,15,2.60
2013,11,25,03,16,2.60
2013,11,25,03,17,2.50
2013,11,25,03,18,2.50
2013,11,25,03,19,2.50
2013,11,25,03,20,2.50
2013,11,25,03,21,2.40
2013,11,25,03,22,2.40
2013,11,25,03,23,2.40
2013,11,25,03,24,2.40
2013,11,25,03,25,2.40
2013,11,25,03,26,2.40
2013,11,25,03,27,2.40
2013,11,25,03,28,2.40
2013,11,25,03,29,2.40
2013,11,25,03,30,2.40
2013,11,25,03,31,2.40
2013,11,25,03,32,2.40
2013,11,25,03,33,2.40
2013,11,25,03,34,2.40
2013,11,25,03,35,2.40
2013,11,25,03,36,2.40
2013,11,25,03,37,2.40
2013,11,25,03,38,2.40
2013,11,25,03,39,2.40
2013,11,25,03,40,2.40
2013,11,25,03,41,2.50
2013,11,25,03,42,2.50
2013,11,25,03,43,2.50
2013,11,25,03,44,2.50
2013,11,25,03,45,2.50
2013,11,25,03,46,2.50
2013,11,25,03,47,2.40
2013,11,25,03,48,2.50
2013,11,25,03,49,2.50
2013,11,25,03,50,2.40
2013,11,25,03,51,2.40
2013,11,25,03,52,2.50
2013,11,25,03,53,2.50
2013,11,25,03,54,2.50
2013,11,25,03,55,2.60
2013,11,25,03,56,2.60
2013,11,25,03,57,2.60
2013,11,25,03,58,2.60
2013,11,25,03,59,2.60
2013,11,25,04,00,2.60
2013,11,25,04,01,2.60
2013,11,25,04,02,2.60
2013,11,25,04,03,2.60
2013,11,25,04,04,2.60
2013,11,25,04,05,2.60
2013,11,25,04,06,2.60
2013,11,25,04,07,2.60
2013,11,25,04,08,2.60
2013,11,25,04,09,2.60
2013,11,25,04,10,2.60
2013,11,25,04,11,2.70
2013,11,25,04,12,2.70
2013,11,25,04,13,2.70
2013,11,25,04,14,2.70
2013,11,25,04,15,2.70
2013,11,25,04,16,2.70
2013,11,25,04,17,2.70
2013,11,25,04,18,2.80
2013,11,25,04,19,2.80
2013,11,25,04,20,2.80
2013,11,25,04,21,2.80
2013,11,25,04,22,2.80
2013,11,25,04,23,2.80
2013,11,25,04,24,2.70
2013,11,25,04,25,2.70
2013,11,25,04,26,2.70
2013,11,25,04,27,2.60
2013,11,25,04,28,2.60
2013,11,25,04,29,2.60
2013,11,25,04,30,2.60
2013,11,25,04,31,2.50
2013,11,25,04,32,2.50
2013,11,25,04,33,2.40
2013,11,25,04,34,2.40
2013,11,25,04,35,2.40
2013,11,25,04,36,2.40
2013,11,25,04,37,2.30
2013,11,25,04,38,2.30
2013,11,25,04,39,2.30
2013,11,25,04,40,2.30
2013,11,25,04,41,2.30
2013,11,25,04,42,2.30
2013,11,25,04,43,2.40
2013,11,25,04,44,2.40
2013,11,25,04,45,2.40
2013,11,25,04,46,2.50
2013,11,25,04,47,2.60
2013,11,25,04,48,2.60
2013,11,25,04,49,2.70
2013,11,25,04,50,2.80
2013,11,25,04,51,2.80
2013,11,25,04,52,2.90
2013,11,25,04,53,2.90
2013,11,25,04,54,2.90
2013,11,25,04,55,2.90
2013,11,25,04,56,2.90
2013,11,25,04,57,2.90
2013,11,25,04,58,2.90
2013,11,25,04,59,2.90
2013,11,25,05,00,2.90
2013,11,25,05,01,2.90
2013,11,25,05,02,2.90
2013,11,25,05,03,2.90
2013,11,25,05,04,2.90
2013,11,25,05,05,2.80
2013,11,25,05,06,2.80
2013,11,25,05,07,2.80
2013,11,25,05,08,2.80
2013,11,25,05,09,2.80
2013,11,25,05,10,2.70
2013,11,25,05,11,2.70
2013,11,25,05,12,2.70
2013,11,25,05,13,2.70
2013,11,25,05,14,2.70
2013,11,25,05,15,2.60
2013,11,25,05,16,2.60
2013,11,25,05,17,2.50
2013,11,25,05,18,2.50
2013,11,25,05,19,2.50
2013,11,25,05,20,2.50
2013,11,25,05,21,2.50
2013,11,25,05,22,2.50
2013,11,25,05,23,2.50
2013,11,25,05,24,2.50
2013,11,25,05,25,2.50
2013,11,25,05,26,2.50
2013,11,25,05,27,2.50
2013,11,25,05,28,2.50
2013,11,25,05,29,2.50
2013,11,25,05,30,2.50
2013,11,25,05,31,2.50
2013,11,25,05,32,2.50
2013,11,25,05,33,2.50
2013,11,25,05,34,2.50
2013,11,25,05,35,2.50
2013,11,25,05,36,2.50
2013,11,25,05,37,2.40
2013,11,25,05,38,2.40
2013,11,25,05,39,2.40
2013,11,25,05,40,2.40
2013,11,25,05,41,2.40
2013,11,25,05,42,2.40
2013,11,25,05,43,2.40
2013,11,25,05,44,2.40
2013,11,25,05,45,2.30
2013,11,25,05,46,2.30
2013,11,25,05,47,2.30
2013,11,25,05,48,2.30
2013,11,25,05,49,2.30
2013,11,25,05,50,2.30
2013,11,25,05,51,2.30
2013,11,25,05,52,2.30
2013,11,25,05,53,2.30
2013,11,25,05,54,2.40
2013,11,25,05,55,2.40
2013,11,25,05,56,2.30
2013,11,25,05,57,2.30
2013,11,25,05,58,2.30
2013,11,25,05,59,2.30
2013,11,25,06,00,2.30
2013,11,25,06,01,2.30
2013,11,25,06,02,2.30
2013,11,25,06,03,2.20
2013,11,25,06,04,2.20
2013,11,25,06,05,2.20
2013,11,25,06,06,2.30
2013,11,25,06,07,2.30
2013,11,25,06,08,2.30
2013,11,25,06,09,2.30
2013,11,25,06,10,2.30
2013,11,25,06,11,2.30
2013,11,25,06,12,2.30
2013,11,25,06,13,2.30
2013,11,25,06,14,2.30
2013,11,25,06,15,2.30
2013,11,25,06,16,2.40
2013,11,25,06,17,2.40
2013,11,25,06,18,2.40
2013,11,25,06,19,2.40
2013,11,25,06,20,2.40
2013,11,25,06,21,2.40
2013,11,25,06,22,2.30
2013,11,25,06,23,2.30
2013,11,25,06,24,2.30
2013,11,25,06,25,2.30
2013,11,25,06,26,2.30
2013,11,25,06,27,2.30
2013,11,25,06,28,2.30
2013,11,25,06,29,2.30
2013,11,25,06,30,2.30
2013,11,25,06,31,2.30
2013,11,25,06,32,2.30
2013,11,25,06,33,2.20
2013,11,25,06,34,2.20
2013,11,25,06,35,2.20
2013,11,25,06,36,2.20
2013,11,25,06,37,2.10
2013,11,25,06,38,2.10
2013,11,25,06,39,2.10
2013,11,25,06,40,2.10
2013,11,25,06,41,2.10
2013,11,25,06,42,2.10
2013,11,25,06,43,2.10
2013,11,25,06,44,2.10
2013,11,25,06,45,2.10
2013,11,25,06,46,2.10
2013,11,25,06,47,2.10
2013,11,25,06,48,2.10
2013,11,25,06,49,2.10
2013,11,25,06,50,2.10
2013,11,25,06,51,2.00
2013,11,25,06,52,2.00
2013,11,25,06,53,2.00
2013,11,25,06,54,1.90
2013,11,25,06,55,1.90
2013,11,25,06,56,1.90
2013,11,25,06,57,1.90
2013,11,25,06,58,1.90
2013,11,25,06,59,2.00
2013,11,25,07,00,2.00
2013,11,25,07,01,2.00
2013,11,25,07,02,2.00
2013,11,25,07,03,1.90
2013,11,25,07,04,1.90
2013,11,25,07,05,1.90
2013,11,25,07,06,1.90
2013,11,25,07,07,1.90
2013,11,25,07,08,1.90
2013,11,25,07,09,1.90
2013,11,25,07,10,1.90
2013,11,25,07,11,1.90
2013,11,25,07,12,1.90
2013,11,25,07,13,1.90
2013,11,25,07,14,1.90
2013,11,25,07,15,1.90
2013,11,25,07,16,1.90
2013,11,25,07,17,1.90
2013,11,25,07,18,1.90
2013,11,25,07,19,1.90
2013,11,25,07,20,1.90
2013,11,25,07,21,1.90
2013,11,25,07,22,2.00
2013,11,25,07,23,2.00
2013,11,25,07,24,2.00
2013,11,25,07,25,2.00
2013,11,25,07,26,2.00
2013,11,25,07,27,2.00
2013,11,25,07,28,2.00
2013,11,25,07,29,2.10
2013,11,25,07,30,2.10
2013,11,25,07,31,2.10
2013,11,25,07,32,2.10
2013,11,25,07,33,2.10
2013,11,25,07,34,2.00
2013,11,25,07,35,2.00
2013,11,25,07,36,2.00
2013,11,25,07,37,2.00
2013,11,25,07,38,2.00
2013,11,25,07,39,2.00
2013,11,25,07,40,1.90
2013,11,25,07,41,1.90
2013,11,25,07,42,1.90
2013,11,25,07,43,1.90
2013,11,25,07,44,1.90
2013,11,25,07,45,1.90
2013,11,25,07,46,1.90
2013,11,25,07,47,1.90
2013,11,25,07,48,2.00
2013,11,25,07,49,2.00
2013,11,25,07,50,2.00
2013,11,25,07,51,2.10
2013,11,25,07,52,2.10
2013,11,25,07,53,2.10
2013,11,25,07,54,2.10
2013,11,25,07,55,2.10
2013,11,25,07,56,2.10
2013,11,25,07,57,2.10
2013,11,25,07,58,2.10
2013,11,25,07,59,2.10
2013,11,25,08,00,2.10
2013,11,25,08,01,2.10
2013,11,25,08,02,2.10
2013,11,25,08,03,2.20
2013,11,25,08,04,2.20
2013,11,25,08,05,2.20
2013,11,25,08,06,2.20
2013,11,25,08,07,2.30
2013,11,25,08,08,2.30
2013,11,25,08,09,2.30
2013,11,25,08,10,2.30
2013,11,25,08,11,2.30
2013,11,25,08,12,2.30
2013,11,25,08,13,2.30
2013,11,25,08,14,2.30
2013,11,25,08,15,2.30
2013,11,25,08,16,2.30
2013,11,25,08,17,2.30
2013,11,25,08,18,2.30
2013,11,25,08,19,2.30
2013,11,25,08,20,2.30
2013,11,25,08,21,2.30
2013,11,25,08,22,2.30
2013,11,25,08,23,2.40
2013,11,25,08,24,2.40
2013,11,25,08,25,2.50
2013,11,25,08,26,2.50
2013,11,25,08,27,2.60
2013,11,25,08,28,2.60
2013,11,25,08,29,2.70
2013,11,25,08,30,2.70
2013,11,25,08,31,2.80
2013,11,25,08,32,2.90
2013,11,25,08,33,3.00
2013,11,25,08,34,3.00
2013,11,25,08,35,3.10
2013,11,25,08,36,3.10
2013,11,25,08,37,3.20
2013,11,25,08,38,3.30
2013,11,25,08,39,3.30
2013,11,25,08,40,3.40
2013,11,25,08,41,3.40
2013,11,25,08,42,3.50
2013,11,25,08,43,3.50
2013,11,25,08,44,3.60
2013,11,25,08,45,3.60
2013,11,25,08,46,3.70
2013,11,25,08,47,3.70
2013,11,25,08,48,3.70
2013,11,25,08,49,3.80
2013,11,25,08,50,3.80
2013,11,25,08,51,3.80
2013,11,25,08,52,3.90
2013,11,25,08,53,3.90
2013,11,25,08,54,4.00
2013,11,25,08,55,4.00
2013,11,25,08,56,4.00
2013,11,25,08,57,4.10
2013,11,25,08,58,4.10
2013,11,25,08,59,4.10
2013,11,25,09,00,4.10
2013,11,25,09,01,4.10
2013,11,25,09,02,4.20
2013,11,25,09,03,4.20
2013,11,25,09,04,4.20
2013,11,25,09,05,4.20
2013,11,25,09,06,4.20
2013,11,25,09,07,4.30
2013,11,25,09,08,4.30
2013,11,25,09,09,4.30
2013,11,25,09,10,4.30
2013,11,25,09,11,4.30
2013,11,25,09,12,4.30
2013,11,25,09,13,4.30
2013,11,25,09,14,4.40
2013,11,25,09,15,4.40
2013,11,25,09,16,4.30
2013,11,25,09,17,4.40
2013,11,25,09,18,4.40
2013,11,25,09,19,4.40
2013,11,25,09,20,4.40
2013,11,25,09,21,4.50
2013,11,25,09,22,4.50
2013,11,25,09,23,4.60
2013,11,25,09,24,4.70
2013,11,25,09,25,4.70
2013,11,25,09,26,4.80
2013,11,25,09,27,4.80
2013,11,25,09,28,4.80
2013,11,25,09,29,4.80
2013,11,25,09,30,4.80
2013,11,25,09,31,4.80
2013,11,25,09,32,4.80
2013,11,25,09,33,4.80
2013,11,25,09,34,4.80
2013,11,25,09,35,4.90
2013,11,25,09,36,4.90
2013,11,25,09,37,4.90
2013,11,25,09,38,4.90
2013,11,25,09,39,5.00
2013,11,25,09,40,5.00
2013,11,25,09,41,5.10
2013,11,25,09,42,5.10
2013,11,25,09,43,5.10
2013,11,25,09,44,5.20
2013,11,25,09,45,5.20
2013,11,25,09,46,5.20
2013,11,25,09,47,5.30
2013,11,25,09,48,5.30
2013,11,25,09,49,5.30
2013,11,25,09,50,5.30
2013,11,25,09,51,5.30
2013,11,25,09,52,5.40
2013,11,25,09,53,5.40
2013,11,25,09,54,5.40
2013,11,25,09,55,5.40
2013,11,25,09,56,5.50
2013,11,25,09,57,5.50
2013,11,25,09,58,5.60
2013,11,25,09,59,5.60
2013,11,25,10,00,5.60
2013,11,25,10,01,5.60
2013,11,25,10,02,5.70
2013,11,25,10,03,5.70
2013,11,25,10,04,5.70
2013,11,25,10,05,5.80
2013,11,25,10,06,5.80
2013,11,25,10,07,5.80
2013,11,25,10,08,5.90
2013,11,25,10,09,5.90
2013,11,25,10,10,6.00
2013,11,25,10,11,6.00
2013,11,25,10,12,6.10
2013,11,25,10,13,6.10
2013,11,25,10,14,6.10
2013,11,25,10,15,6.10
2013,11,25,10,16,6.20
2013,11,25,10,17,6.20
2013,11,25,10,18,6.20
2013,11,25,10,19,6.30
2013,11,25,10,20,6.30
2013,11,25,10,21,6.30
2013,11,25,10,22,6.40
2013,11,25,10,23,6.40
2013,11,25,10,24,6.50
2013,11,25,10,25,6.50
2013,11,25,10,26,6.60
2013,11,25,10,27,6.60
2013,11,25,10,28,6.70
2013,11,25,10,29,6.70
2013,11,25,10,30,6.70
2013,11,25,10,31,6.80
2013,11,25,10,32,6.80
2013,11,25,10,33,6.90
2013,11,25,10,34,6.90
2013,11,25,10,35,7.00
2013,11,25,10,36,7.10
2013,11,25,10,37,7.20
2013,11,25,10,38,7.30
2013,11,25,10,39,7.40
2013,11,25,10,40,7.60
2013,11,25,10,41,7.60
2013,11,25,10,42,7.70
2013,11,25,10,43,7.80
2013,11,25,10,44,7.80
2013,11,25,10,45,7.90
2013,11,25,10,46,8.00
2013,11,25,10,47,8.10
2013,11,25,10,48,8.10
2013,11,25,10,49,8.10
2013,11,25,10,50,8.00
2013,11,25,10,51,8.00
2013,11,25,10,52,7.90
2013,11,25,10,53,7.90
2013,11,25,10,54,7.90
2013,11,25,10,55,7.90
2013,11,25,10,56,7.90
2013,11,25,10,57,7.80
2013,11,25,10,58,7.80
2013,11,25,10,59,7.80
2013,11,25,11,00,7.80
2013,11,25,11,01,7.80
2013,11,25,11,02,7.80
2013,11,25,11,03,7.90
2013,11,25,11,04,7.90
2013,11,25,11,05,7.90
2013,11,25,11,06,7.90
2013,11,25,11,07,8.00
2013,11,25,11,08,8.00
2013,11,25,11,09,8.10
2013,11,25,11,10,8.10
2013,11,25,11,11,8.10
2013,11,25,11,12,8.20
2013,11,25,11,13,8.20
2013,11,25,11,14,8.20
2013,11,25,11,15,8.20
2013,11,25,11,16,8.30
2013,11,25,11,17,8.30
2013,11,25,11,18,8.40
2013,11,25,11,19,8.40
2013,11,25,11,20,8.30
2013,11,25,11,21,8.30
2013,11,25,11,22,8.30
2013,11,25,11,23,8.30
2013,11,25,11,24,8.20
2013,11,25,11,25,8.20
2013,11,25,11,26,8.20
2013,11,25,11,27,8.20
2013,11,25,11,28,8.30
2013,11,25,11,29,8.30
2013,11,25,11,30,8.30
2013,11,25,11,31,8.30
2013,11,25,11,32,8.30
2013,11,25,11,33,8.30
2013,11,25,11,34,8.30
2013,11,25,11,35,8.40
2013,11,25,11,36,8.40
2013,11,25,11,37,8.40
2013,11,25,11,38,8.40
2013,11,25,11,39,8.50
2013,11,25,11,40,8.60
2013,11,25,11,41,8.60
2013,11,25,11,42,8.70
2013,11,25,11,43,8.80
2013,11,25,11,44,8.80
2013,11,25,11,45,8.90
2013,11,25,11,46,8.90
2013,11,25,11,47,8.90
2013,11,25,11,48,8.90
2013,11,25,11,49,9.00
2013,11,25,11,50,9.00
2013,11,25,11,51,9.10
2013,11,25,11,52,9.10
2013,11,25,11,53,9.10
2013,11,25,11,54,9.10
2013,11,25,11,55,9.00
2013,11,25,11,56,9.00
2013,11,25,11,57,9.00
2013,11,25,11,58,8.90
2013,11,25,11,59,8.90
2013,11,25,12,00,8.90
2013,11,25,12,01,8.90
2013,11,25,12,02,8.90
2013,11,25,12,03,8.90
2013,11,25,12,04,8.90
2013,11,25,12,05,9.00
2013,11,25,12,06,9.00
2013,11,25,12,07,9.10
2013,11,25,12,08,9.10
2013,11,25,12,09,9.20
2013,11,25,12,10,9.20
2013,11,25,12,11,9.20
2013,11,25,12,12,9.20
2013,11,25,12,13,9.20
2013,11,25,12,14,9.20
2013,11,25,12,15,9.20
2013,11,25,12,16,9.20
2013,11,25,12,17,9.20
2013,11,25,12,18,9.20
2013,11,25,12,19,9.20
2013,11,25,12,20,9.20
2013,11,25,12,21,9.30
2013,11,25,12,22,9.20
2013,11,25,12,23,9.20
2013,11,25,12,24,9.20
2013,11,25,12,25,9.30
2013,11,25,12,26,9.30
2013,11,25,12,27,9.30
2013,11,25,12,28,9.30
2013,11,25,12,29,9.30
2013,11,25,12,30,9.30
2013,11,25,12,31,9.30
2013,11,25,12,32,9.30
2013,11,25,12,33,9.20
2013,11,25,12,34,9.20
2013,11,25,12,35,9.20
2013,11,25,12,36,9.10
2013,11,25,12,37,9.20
2013,11,25,12,38,9.20
2013,11,25,12,39,9.20
2013,11,25,12,40,9.30
2013,11,25,12,41,9.30
2013,11,25,12,42,9.30
2013,11,25,12,43,9.30
2013,11,25,12,44,9.30
2013,11,25,12,45,9.30
2013,11,25,12,46,9.30
2013,11,25,12,47,9.30
2013,11,25,12,48,9.30
2013,11,25,12,49,9.40
2013,11,25,12,50,9.40
2013,11,25,12,51,9.50
2013,11,25,12,52,9.60
2013,11,25,12,53,9.60
2013,11,25,12,54,9.60
2013,11,25,12,55,9.60
2013,11,25,12,56,9.60
2013,11,25,12,57,9.60
2013,11,25,12,58,9.60
2013,11,25,12,59,9.60
2013,11,25,13,00,9.60
2013,11,25,13,01,9.60
2013,11,25,13,02,9.60
2013,11,25,13,03,9.60
2013,11,25,13,04,9.50
2013,11,25,13,05,9.50
2013,11,25,13,06,9.50
2013,11,25,13,07,9.60
2013,11,25,13,08,9.60
2013,11,25,13,09,9.50
2013,11,25,13,10,9.50
2013,11,25,13,11,9.40
2013,11,25,13,12,9.40
2013,11,25,13,13,9.40
2013,11,25,13,14,9.30
2013,11,25,13,15,9.40
2013,11,25,13,16,9.40
2013,11,25,13,17,9.30
2013,11,25,13,18,9.30
2013,11,25,13,19,9.30
2013,11,25,13,20,9.30
2013,11,25,13,21,9.40
2013,11,25,13,22,9.40
2013,11,25,13,23,9.30
2013,11,25,13,24,9.20
2013,11,25,13,25,9.20
2013,11,25,13,26,9.20
2013,11,25,13,27,9.20
2013,11,25,13,28,9.20
2013,11,25,13,29,9.10
2013,11,25,13,30,9.10
2013,11,25,13,31,9.10
2013,11,25,13,32,9.10
2013,11,25,13,33,9.10
2013,11,25,13,34,9.10
2013,11,25,13,35,9.10
2013,11,25,13,36,9.10
2013,11,25,13,37,9.10
2013,11,25,13,38,9.10
2013,11,25,13,39,9.10
2013,11,25,13,40,9.10
2013,11,25,13,41,9.00
2013,11,25,13,42,9.10
2013,11,25,13,43,9.00
2013,11,25,13,44,9.00
2013,11,25,13,45,8.90
2013,11,25,13,46,8.90
2013,11,25,13,47,8.90
2013,11,25,13,48,8.90
2013,11,25,13,49,8.90
2013,11,25,13,50,8.90
2013,11,25,13,51,8.90
2013,11,25,13,52,8.90
2013,11,25,13,53,9.00
2013,11,25,13,54,9.00
2013,11,25,13,55,9.00
2013,11,25,13,56,9.10
2013,11,25,13,57,9.10
2013,11,25,13,58,9.10
2013,11,25,13,59,9.10
2013,11,25,14,00,9.10
2013,11,25,14,01,9.10
2013,11,25,14,02,9.10
2013,11,25,14,03,9.00
2013,11,25,14,04,9.00
2013,11,25,14,05,8.90
2013,11,25,14,06,8.90
2013,11,25,14,07,8.90
2013,11,25,14,08,8.90
2013,11,25,14,09,8.90
2013,11,25,14,10,9.00
2013,11,25,14,11,9.00
2013,11,25,14,12,8.90
2013,11,25,14,13,8.90
2013,11,25,14,14,8.90
2013,11,25,14,15,8.80
2013,11,25,14,16,8.80
2013,11,25,14,17,8.80
2013,11,25,14,18,8.80
2013,11,25,14,19,8.80
2013,11,25,14,20,8.80
2013,11,25,14,21,8.80
2013,11,25,14,22,8.70
2013,11,25,14,23,8.70
2013,11,25,14,24,8.70
2013,11,25,14,25,8.70
2013,11,25,14,26,8.70
2013,11,25,14,27,8.60
2013,11,25,14,28,8.60
2013,11,25,14,29,8.60
2013,11,25,14,30,8.60
2013,11,25,14,31,8.60
2013,11,25,14,32,8.60
2013,11,25,14,33,8.60
2013,11,25,14,34,8.60
2013,11,25,14,35,8.50
2013,11,25,14,36,8.50
2013,11,25,14,37,8.50
2013,11,25,14,38,8.50
2013,11,25,14,39,8.50
2013,11,25,14,40,8.50
2013,11,25,14,41,8.50
2013,11,25,14,42,8.50
2013,11,25,14,43,8.50
2013,11,25,14,44,8.50
2013,11,25,14,45,8.50
2013,11,25,14,46,8.50
2013,11,25,14,47,8.50
2013,11,25,14,48,8.50
2013,11,25,14,49,8.50
2013,11,25,14,50,8.50
2013,11,25,14,51,8.60
2013,11,25,14,52,8.60
2013,11,25,14,53,8.50
2013,11,25,14,54,8.50
2013,11,25,14,55,8.50
2013,11,25,14,56,8.50
2013,11,25,14,57,8.60
2013,11,25,14,58,8.60
2013,11,25,14,59,8.60
2013,11,25,15,00,8.60
2013,11,25,15,01,8.60
2013,11,25,15,02,8.60
2013,11,25,15,03,8.70
2013,11,25,15,04,8.70
2013,11,25,15,05,8.70
2013,11,25,15,06,8.70
2013,11,25,15,07,8.70
2013,11,25,15,08,8.70
2013,11,25,15,09,8.70
2013,11,25,15,10,8.70
2013,11,25,15,11,8.70
2013,11,25,15,12,8.70
2013,11,25,15,13,8.60
2013,11,25,15,14,8.60
2013,11,25,15,15,8.60
2013,11,25,15,16,8.60
2013,11,25,15,17,8.60
2013,11,25,15,18,8.60
2013,11,25,15,19,8.60
2013,11,25,15,20,8.60
2013,11,25,15,21,8.60
2013,11,25,15,22,8.60
2013,11,25,15,23,8.60
2013,11,25,15,24,8.50
2013,11,25,15,25,8.50
2013,11,25,15,26,8.50
2013,11,25,15,27,8.50
2013,11,25,15,28,8.50
2013,11,25,15,29,8.50
2013,11,25,15,30,8.50
2013,11,25,15,31,8.50
2013,11,25,15,32,8.50
2013,11,25,15,33,8.50
2013,11,25,15,34,8.50
2013,11,25,15,35,8.50
2013,11,25,15,36,8.50
2013,11,25,15,37,8.50
2013,11,25,15,38,8.50
2013,11,25,15,39,8.50
2013,11,25,15,40,8.40
2013,11,25,15,41,8.40
2013,11,25,15,42,8.40
2013,11,25,15,43,8.30
2013,11,25,15,44,8.30
2013,11,25,15,45,8.30
2013,11,25,15,46,8.30
2013,11,25,15,47,8.20
2013,11,25,15,48,8.20
2013,11,25,15,49,8.20
2013,11,25,15,50,8.20
2013,11,25,15,51,8.10
2013,11,25,15,52,8.10
2013,11,25,15,53,8.10
2013,11,25,15,54,8.10
2013,11,25,15,55,8.00
2013,11,25,15,56,8.00
2013,11,25,15,57,8.00
2013,11,25,15,58,7.90
2013,11,25,15,59,7.90
2013,11,25,16,00,7.80
2013,11,25,16,01,7.80
2013,11,25,16,02,7.80
2013,11,25,16,03,7.70
2013,11,25,16,04,7.60
2013,11,25,16,05,7.60
2013,11,25,16,06,7.60
2013,11,25,16,07,7.50
2013,11,25,16,08,7.50
2013,11,25,16,09,7.40
2013,11,25,16,10,7.40
2013,11,25,16,11,7.40
2013,11,25,16,12,7.30
2013,11,25,16,13,7.30
2013,11,25,16,14,7.30
2013,11,25,16,15,7.20
2013,11,25,16,16,7.20
2013,11,25,16,17,7.20
2013,11,25,16,18,7.10
2013,11,25,16,19,7.10
2013,11,25,16,20,7.00
2013,11,25,16,21,7.00
2013,11,25,16,22,6.90
2013,11,25,16,23,6.90
2013,11,25,16,24,6.90
2013,11,25,16,25,6.80
2013,11,25,16,26,6.80
2013,11,25,16,27,6.70
2013,11,25,16,28,6.70
2013,11,25,16,29,6.60
2013,11,25,16,30,6.50
2013,11,25,16,31,6.50
2013,11,25,16,32,6.40
2013,11,25,16,33,6.30
2013,11,25,16,34,6.30
2013,11,25,16,35,6.20
2013,11,25,16,36,6.20
2013,11,25,16,37,6.10
2013,11,25,16,38,6.10
2013,11,25,16,39,6.00
2013,11,25,16,40,6.00
2013,11,25,16,41,5.90
2013,11,25,16,42,5.90
2013,11,25,16,43,5.90
2013,11,25,16,44,5.80
2013,11,25,16,45,5.80
2013,11,25,16,46,5.80
2013,11,25,16,47,5.70
2013,11,25,16,48,5.70
2013,11,25,16,49,5.70
2013,11,25,16,50,5.60
2013,11,25,16,51,5.60
2013,11,25,16,52,5.50
2013,11,25,16,53,5.40
2013,11,25,16,54,5.40
2013,11,25,16,55,5.30
2013,11,25,16,56,5.30
2013,11,25,16,57,5.30
2013,11,25,16,58,5.20
2013,11,25,16,59,5.20
2013,11,25,17,00,5.20
2013,11,25,17,01,5.10
2013,11,25,17,02,5.10
2013,11,25,17,03,5.10
2013,11,25,17,04,5.00
2013,11,25,17,05,5.00
2013,11,25,17,06,4.90
2013,11,25,17,07,4.90
2013,11,25,17,08,4.90
2013,11,25,17,09,4.90
2013,11,25,17,10,4.90
2013,11,25,17,11,4.90
2013,11,25,17,12,4.80
2013,11,25,17,13,4.80
2013,11,25,17,14,4.80
2013,11,25,17,15,4.80
2013,11,25,17,16,4.70
2013,11,25,17,17,4.70
2013,11,25,17,18,4.70
2013,11,25,17,19,4.60
2013,11,25,17,20,4.60
2013,11,25,17,21,4.60
2013,11,25,17,22,4.50
2013,11,25,17,23,4.50
2013,11,25,17,24,4.50
2013,11,25,17,25,4.40
2013,11,25,17,26,4.40
2013,11,25,17,27,4.40
2013,11,25,17,28,4.40
2013,11,25,17,29,4.40
2013,11,25,17,30,4.30
2013,11,25,17,31,4.30
2013,11,25,17,32,4.30
2013,11,25,17,33,4.30
2013,11,25,17,34,4.30
2013,11,25,17,35,4.20
2013,11,25,17,36,4.20
2013,11,25,17,37,4.20
2013,11,25,17,38,4.20
2013,11,25,17,39,4.20
2013,11,25,17,40,4.20
2013,11,25,17,41,4.20
2013,11,25,17,42,4.10
2013,11,25,17,43,4.10
2013,11,25,17,44,4.10
2013,11,25,17,45,4.10
2013,11,25,17,46,4.10
2013,11,25,17,47,4.10
2013,11,25,17,48,4.10
2013,11,25,17,49,4.10
2013,11,25,17,50,4.10
2013,11,25,17,51,4.10
2013,11,25,17,52,4.10
2013,11,25,17,53,4.10
2013,11,25,17,54,4.10
2013,11,25,17,55,4.20
2013,11,25,17,56,4.20
2013,11,25,17,57,4.20
2013,11,25,17,58,4.20
2013,11,25,17,59,4.20
2013,11,25,18,00,4.20
2013,11,25,18,01,4.20
2013,11,25,18,02,4.20
2013,11,25,18,03,4.20
2013,11,25,18,04,4.20
2013,11,25,18,05,4.20
2013,11,25,18,06,4.20